Tracking 35274 objects as of 10-Sep-2026
HD Live streaming from Space Station
objects crossing your sky now

STARLINK-35779

Track STARLINK-35779 now!
10-day predictions


NORAD ID: 67047
Int'l Code: 2025-294T
Launch date: December 11, 2025
Source: United States (US)
Launch site: AIR FORCE EASTERN TEST RANGE (AFETR)
Your satellite tracking list
Your tracking list is empty




NASA's NSSDC Master Catalog

Two Line Element Set (TLE):
1 67047U 25294T   26252.25228910  .00009105  00000-0  34001-3 0  9998
2 67047  43.0055  81.3298 0001373 274.7528  85.3167 15.27576777 42878
Source of the keplerian elements: AFSPC